www.pogodaiklimat.ru

Погода и климат >> Архив погоды >> Бангладеш >> Хатия


ПОГОДА в Хатии

  • Прогноз погоды в Хатии
  • Монитор погоды в Хатии

АРХИВ ПОГОДЫ в Хатии

Время (UTC), дата Ветер
(напр.,м/с)
 
Видим.   Явления Облачность Т
(С)
Тd
(С)
f
(%)
Тe
(С)
Тes
(С)
Комфортность P
(гПа)
Po
(гПа)
Тmin
(С)
Tmax
(С)
R
(мм)
R24
(мм)
S
(см)
15 16.07 Ю 1 3000 м мгла 8/3 540 м
[Sc As trans]
+29.0 +28.0 94 +48 +48 опасность
перегрева
1002.6 1002.4
18 16.07 Ю 1 3000 м мгла 6/3 540 м
[Sc Ac trans]
+28.7 +28.7 100 +49 +49 опасность
перегрева
1003.0 1002.8
00 17.07 Ю 1 3000 м мгла 9/3 540 м
[Sc As trans]
+28.6 +28.6 100 +49 +49 опасность
перегрева
1001.4 1001.2
06 17.07 В 1 6000 м 4/3 540 м
[Sc Ac trans]
+31.5 +29.0 87 +55 +73 опасность
перегрева
1002.2 1002.0
09 18.07 ЮВ 1 6000 м 5/3 540 м
[Sc Ci fib]
+32.0 +27.0 75 +50 +60 опасность
перегрева
1000.5 1000.2
12 18.07 З 1 6000 м 4/4 540 м
[Sc]
+30.5 +27.0 82 +48 +48 опасность
перегрева
1000.5 1000.2 +32.6
18 18.07 Ю 1 3000 м мгла 6/3 540 м
[Sc As trans]
+29.0 +28.0 94 +48 +48 опасность
перегрева
1003.3 1003.1
00 19.07 Ю 1 3000 м мгла {дождь} 8/4 240 м
[Frnb As trans]
+27.5 +27.5 100 +44 +44 опасность
перегрева
1001.8 1001.5 4
03 19.07 В 1 6000 м 6/3 540 м
[Sc Ac trans]
+31.2 +27.0 78 +49 +57 опасность
перегрева
1004.0 1003.7 +25.8
06 19.07 Ю 1 6000 м 5/5 480 м
[Sc]
+31.4 +26.0 73 +47 +60 опасность
перегрева
1003.6 1003.4
09 19.07 Ю 1 6000 м 6/3 540 м
[Sc As trans]
+31.0 +28.0 84 +51 +59 опасность
перегрева
1003.2 1002.9
12 19.07 Ю 1 5000 м 6/3 540 м
[Sc As trans]
+30.0 +27.0 84 +47 +47 опасность
перегрева
1001.7 1001.4 +32.0
15 19.07 штиль 0 5000 м 3/3 540 м
[Sc]
+29.0 +27.0 89 +46 +46 опасность
перегрева
1003.6 1003.4
18 19.07 ЮЗ 1 4000 м мгла 3/3 540 м
[Sc]
+28.3 +26.0 87 +42 +42 опасность
перегрева
1004.6 1004.4
00 20.07 штиль 0 4000 м мгла 4/3 540 м
[Sc Ci fib]
+27.5 +27.5 100 +44 +45 опасность
перегрева
1004.6 1004.3
03 20.07 Ю 1 5000 м мгла 3/3 540 м
[Sc]
+31.0 +26.0 75 +46 +58 опасность
перегрева
1005.6 1005.4 +27.0
06 20.07 Ю 1 6000 м 3/3 540 м
[Sc]
+31.5 +28.0 82 +52 +72 опасность
перегрева
1005.3 1005.1
09 20.07 Ю 1 7000 м 4/4 540 м
[Sc]
+32.4 +27.0 73 +50 +59 опасность
перегрева
1003.7 1003.5
12 20.07 ЮЗ 1 6000 м 4/3 540 м
[Sc Ci fib]
+30.7 +27.0 81 +48 +49 опасность
перегрева
1002.9 1002.7 +33.2
15 20.07 Ю 1 3000 м мгла 3/3 540 м
[Sc]
+29.0 +28.0 94 +48 +48 опасность
перегрева
1003.6 1003.4
18 20.07 Ю 1 3000 м мгла 3/3 540 м
[Sc]
+29.0 +28.0 94 +48 +48 опасность
перегрева
1004.8 1004.6
00 21.07 штиль 0 13 км мгла ясно +27.7 +27.7 100 +45 +46 опасность
перегрева
1004.2 1003.9
03 21.07 штиль 0 5000 м мгла 9/4 240 м
[St As trans]
+30.6 +28.0 86 +51 +56 опасность
перегрева
1006.3 1006.1 +27.5
06 21.07 ЮВ 1 4000 м мгла 10/4 240 м
[Frnb As op]
+30.0 +28.0 89 +50 +53 опасность
перегрева
1005.6 1005.4
09 21.07 Ю 1 5000 м мгла {дождь} 6/3 540 м
[Sc As trans]
+29.5 +28.0 92 +49 +56 опасность
перегрева
1003.8 1003.6
12 21.07 Ю 1 4000 м мгла {дождь} 6/3 540 м
[Sc Ci fib]
+29.5 +28.0 92 +49 +49 опасность
перегрева
1003.2 1003.0 2
15 21.07 ЮЗ 1 5000 м ясно +29.0 +28.0 94 +48 +48 опасность
перегрева
1004.2 1004.0
18 21.07 З 1 4000 м мгла ясно +28.3 +27.0 93 +45 +45 опасность
перегрева
1004.9 1004.6
00 22.07 ЮЗ 1 4000 м мгла 5/3 540 м
[Sc As trans]
+27.5 +27.5 100 +44 +44 опасность
перегрева
1003.8 1003.5
03 22.07 Ю 1 4000 м мгла 8/3 540 м
[Sc As trans]
+31.0 +28.0 84 +51 +57 опасность
перегрева
1005.5 1005.3 +27.0

 

Местоположение метеостанции Хатия (Бангладеш): широта 22.43 долгота 91.10 высота над уровнем моря 4 м.

В архиве по умолчанию представлена погода в Хатии за последнюю неделю. Архивные данные за месяц целиком и за предыдущие месяцы, начиная с января 2011 года, Вы можете получить, выбрав интересующий диапазон дат из раскрывающегося списка и нажав кнопку "Ввод!".


*Определитесь, кто Вы:
робот инопланетянин человек

Внимание! Время в таблицах - всемирное. Для получения местного времени необходимо прибавить поправку, которая равна 6.5 ч.

Смотрите также архив погоды в соседних городах и на ближайших метеорологических станциях:

Погода в Сандвипе (Бангладеш) (34 км)
Погода в Маиидиcурте (Бангладеш) (49 км)
Погода в Бхоле (Бангладеш) (54 км)
Погода в Ситакунду (Бангладеш) (64 км)
Погода в Фени (Бангладеш) (74 км)
Погода в Читтагонге (Бангладеш) (76 км)
Погода в Патуакхали (Бангладеш) (80 км)
Погода в Барисале (Бангладеш) (83 км)
Погода в Чандпуре (Бангладеш) (102 км)
Погода в Кепупаре (Бангладеш) (103 км)

Пояснения к столбцам:

Ветер - указаны скорость ветра в м/с - средняя за 10 мин, порывы в срок и между сроками (в фигурных скобках) и направление, откуда дует ветер: С - северный, СВ - северо-восточный, В - восточный, ЮВ - юго-восточный, Ю - южный, ЮЗ - юго-западный, З - западный, СЗ - северо-западный.
Видимость - горизонтальная дальность видимости в метрах или километрах. При видимости от 1 до 10 км при отсутствии осадков обычно наблюдается дымка, при ухудшении видимости до 1 км и менее - туман. В сухую погоду видимость может ухудшаться дымом, пылью или мглою.
Явления - указаны атмосферные явления, наблюдавшиеся в срок или в последний час перед сроком; фигурными скобками обозначены явления, наблюдавшиеся между сроками (за 1-3 часа до срока); квадратными скобками обозначены град или гололедные отложения с указанием их диаметра в мм.
Облачность - указаны через наклонную черту общая и нижняя облачность в баллах и высота нижней границы облаков в метрах; квадратными скобками обозначены формы облаков: Ci - перистые, Cs - перисто-слоистые, Cc - перисто-кучевые, Ac - высококучевые, As - высокослоистые, Sc - слоисто-кучевые, Ns - слоисто-дождевые, Cu - кучевые, Cb - кучево-дождевые. Подробнее классификацию облаков см. в Атласе облаков (PDF).
T - Температура воздуха - температура, измеренная на высоте 2 м над землей.
Td - Температура точки росы - температура, при понижении до которой содержащийся в воздухе водяной пар достигнет насыщения.
f - Относительная влажность воздуха - влажноcть воздуха, измеренная на высоте 2 м над землей.
Te - Эффективная температура - температура, которую ощущает одетый по сезону человек в тени. Характеристика душности погоды. При расчете учитывается влияние влажности воздуха и скорости ветра на теплоощущения человека.
Tes - Эффективная температура на солнце - температура, которую ощущает человек, с поправкой на солнечный нагрев. Характеристика знойности погоды. Зависит от высоты солнца над горизонтом, облачности и скорости ветра. Ночью, в пасмурную погоду, а также при ветре 12 м/с и более поправка равна нулю.
P - Атмосферное давление - приведенное к уровню моря атмосферное давление.
Po - Атмосферное давление - измеренное на уровне метеостанции атмосферное давление.
Tmin - Минимальная температура - минимум температуры воздуха на высоте 2 м над землей.
Tmax - Максимальная температура - максимум температуры воздуха на высоте 2 м над землей.
R - Количество осадков - Количество выпавших осадков за период времени, мм. При наведении курсора мыши на число - период времени, за который выпало указанное количество осадков.
R24 - Количество осадков - Количество выпавших осадков за 24 часа, мм.
S - Снежный покров - Высота снежного покрова, см. При наведении курсора мыши на число - состояние снежного покрова и степень покрытия местности в баллах.